• En España
  • Lista de países
  • Para 7 días
  • Temperatura del agua
  • Mapa Satelital
  • El tiempo en el mapa
  • Informadores
  • user-avatar
    Iniciar sesión

    Tiempo cada hora Kipungo

    Hoy, 20 Octubre, Viernes

    Tiempo Temperatura Precipitaciones Viento Presión Humedad
    00:00 +25°C° 0 mm 2 mps 654 mmHg 53%
    01:00 +24°C° 0 mm 1 mps 654 mmHg 54%
    02:00 +23°C° 0 mm 1 mps 654 mmHg 56%
    03:00 +22°C° 0 mm 1 mps 654 mmHg 59%
    04:00 +22°C° 0 mm 1 mps 653 mmHg 61%
    05:00 +23°C° 0 mm 1 mps 654 mmHg 56%
    06:00 +24°C° 0 mm 1 mps 654 mmHg 50%
    07:00 +25°C° 0 mm 1 mps 655 mmHg 45%
    08:00 +29°C° 0 mm 1 mps 656 mmHg 35%
    09:00 +32°C° 0 mm 2 mps 656 mmHg 25%
    10:00 +37°C° 0 mm 2 mps 657 mmHg 15%
    11:00 +38°C° 0 mm 2 mps 657 mmHg 13%
    12:00 +40°C° 0 mm 1 mps 657 mmHg 12%
    13:00 +42°C° 0 mm 1 mps 656 mmHg 10%
    14:00 +41°C° 0 mm 1 mps 656 mmHg 11%
    15:00 +40°C° 0 mm 1 mps 655 mmHg 12%
    16:00 +37°C° 0 mm 1 mps 654 mmHg 12%
    17:00 +36°C° 0 mm 2 mps 654 mmHg 17%
    18:00 +34°C° 0 mm 3 mps 654 mmHg 22%
    19:00 +30°C° 0 mm 4 mps 654 mmHg 27%
    20:00 +29°C° 0 mm 3 mps 654 mmHg 33%
    21:00 +27°C° 0 mm 3 mps 655 mmHg 39%
    22:00 +25°C° 0 mm 2 mps 655 mmHg 45%
    23:00 +24°C° 0 mm 2 mps 655 mmHg 49%

    Mañana, 21 Octubre, Sábado

    Tiempo Temperatura Precipitaciones Viento Presión Humedad
    00:00 +23°C° 0 mm 2 mps 654 mmHg 52%
    01:00 +23°C° 0 mm 2 mps 654 mmHg 56%
    02:00 +22°C° 0 mm 1 mps 654 mmHg 58%
    03:00 +21°C° 0 mm 1 mps 653 mmHg 60%
    04:00 +21°C° 0 mm 1 mps 653 mmHg 63%
    05:00 +22°C° 0 mm 1 mps 654 mmHg 54%
    06:00 +24°C° 0 mm 1 mps 655 mmHg 46%
    07:00 +25°C° 0 mm 1 mps 655 mmHg 38%
    08:00 +28°C° 0 mm 2 mps 656 mmHg 29%
    09:00 +33°C° 0 mm 3 mps 657 mmHg 20%
    10:00 +36°C° 0 mm 4 mps 657 mmHg 11%
    11:00 +37°C° 0 mm 4 mps 657 mmHg 10%
    12:00 +40°C° 0 mm 4 mps 656 mmHg 9%
    13:00 +40°C° 0 mm 3 mps 655 mmHg 9%
    14:00 +40°C° 0 mm 3 mps 655 mmHg 9%
    15:00 +40°C° 0 mm 2 mps 654 mmHg 8%
    16:00 +40°C° 0 mm 2 mps 654 mmHg 8%
    17:00 +37°C° 0 mm 2 mps 654 mmHg 14%
    18:00 +34°C° 0 mm 3 mps 654 mmHg 19%
    19:00 +30°C° 0 mm 3 mps 654 mmHg 24%
    20:00 +28°C° 0 mm 3 mps 654 mmHg 31%
    21:00 +27°C° 0 mm 3 mps 654 mmHg 39%
    22:00 +25°C° 0 mm 3 mps 654 mmHg 47%
    23:00 +24°C° 0 mm 2 mps 654 mmHg 50%

    Pasado mañana, 22 Octubre, Domingo

    Tiempo Temperatura Precipitaciones Viento Presión Humedad
    00:00 +23°C° 0 mm 2 mps 654 mmHg 53%
    01:00 +22°C° 0 mm 1 mps 654 mmHg 57%
    02:00 +21°C° 0 mm 1 mps 654 mmHg 59%
    03:00 +21°C° 0 mm 1 mps 654 mmHg 62%
    04:00 +20°C° 0 mm 1 mps 654 mmHg 64%
    05:00 +22°C° 0 mm 1 mps 654 mmHg 59%
    06:00 +23°C° 0 mm 1 mps 655 mmHg 54%
    07:00 +24°C° 0 mm 1 mps 655 mmHg 49%
    08:00 +28°C° 0 mm 1 mps 656 mmHg 38%
    09:00 +31°C° 0 mm 2 mps 657 mmHg 26%
    10:00 +36°C° 0 mm 2 mps 658 mmHg 15%
    11:00 +37°C° 0 mm 2 mps 657 mmHg 14%
    12:00 +38°C° 0 mm 3 mps 656 mmHg 13%
    13:00 +40°C° 0 mm 3 mps 656 mmHg 12%
    14:00 +39°C° 0 mm 3 mps 655 mmHg 14%
    15:00 +38°C° 0 mm 3 mps 654 mmHg 15%
    16:00 +37°C° 0 mm 3 mps 654 mmHg 16%
    17:00 +35°C° 0 mm 2 mps 654 mmHg 20%
    18:00 +32°C° 0 mm 2 mps 654 mmHg 24%
    19:00 +30°C° 0 mm 2 mps 654 mmHg 27%
    20:00 +28°C° 0 mm 1 mps 654 mmHg 33%
    21:00 +27°C° 0 mm 1 mps 655 mmHg 38%
    22:00 +25°C° 0 mm 1 mps 655 mmHg 44%
    23:00 +25°C° 0 mm 1 mps 654 mmHg 46%

    23 Octubre, Lunes

    Tiempo Temperatura Precipitaciones Viento Presión Humedad
    00:00 +24°C° 0 mm 1 mps 654 mmHg 49%
    01:00 +24°C° 0 mm 1 mps 654 mmHg 51%
    02:00 +23°C° 0,1 mm 1 mps 653 mmHg 55%
    03:00 +23°C° 0,1 mm 2 mps 653 mmHg 58%
    04:00 +21°C° 0,1 mm 2 mps 653 mmHg 62%
    05:00 +23°C° 0 mm 2 mps 653 mmHg 59%
    06:00 +24°C° 0 mm 1 mps 654 mmHg 56%
    07:00 +25°C° 0 mm 1 mps 654 mmHg 54%
    08:00 +28°C° 0 mm 2 mps 655 mmHg 44%
    09:00 +31°C° 0 mm 3 mps 655 mmHg 35%
    10:00 +35°C° 0 mm 3 mps 656 mmHg 25%
    11:00 +36°C° 0 mm 3 mps 655 mmHg 23%
    12:00 +37°C° 0 mm 3 mps 655 mmHg 20%
    13:00 +38°C° 0 mm 3 mps 654 mmHg 18%
    14:00 +37°C° 0 mm 3 mps 654 mmHg 20%
    15:00 +36°C° 0 mm 3 mps 653 mmHg 22%
    16:00 +35°C° 0 mm 3 mps 653 mmHg 24%
    17:00 +32°C° 0,3 mm 2 mps 653 mmHg 29%
    18:00 +30°C° 0,3 mm 2 mps 654 mmHg 34%
    19:00 +28°C° 0,3 mm 2 mps 654 mmHg 39%
    20:00 +27°C° 0,3 mm 1 mps 654 mmHg 45%
    21:00 +26°C° 0,3 mm 1 mps 654 mmHg 51%
    22:00 +25°C° 0,3 mm 1 mps 654 mmHg 56%
    23:00 +24°C° 0,1 mm 1 mps 654 mmHg 59%

    24 Octubre, Martes

    Tiempo Temperatura Precipitaciones Viento Presión Humedad
    00:00 +24°C° 0,1 mm 1 mps 654 mmHg 61%
    01:00 +23°C° 0,1 mm 1 mps 653 mmHg 63%
    02:00 +23°C° 0,3 mm 1 mps 653 mmHg 66%
    03:00 +22°C° 0,3 mm 1 mps 653 mmHg 69%
    04:00 +22°C° 0,3 mm 1 mps 652 mmHg 72%
    05:00 +22°C° 0 mm 1 mps 653 mmHg 70%
    06:00 +23°C° 0 mm 1 mps 654 mmHg 68%
    07:00 +24°C° 0 mm 2 mps 654 mmHg 66%
    08:00 +26°C° 0 mm 2 mps 655 mmHg 57%
    09:00 +29°C° 0 mm 2 mps 656 mmHg 47%
    10:00 +31°C° 0 mm 2 mps 656 mmHg 38%
    11:00 +32°C° 0 mm 2 mps 656 mmHg 34%
    12:00 +35°C° 0 mm 3 mps 655 mmHg 31%
    13:00 +36°C° 0 mm 3 mps 654 mmHg 27%
    14:00 +35°C° 0,1 mm 3 mps 654 mmHg 30%
    15:00 +34°C° 0,1 mm 2 mps 654 mmHg 32%
    16:00 +32°C° 0,1 mm 2 mps 653 mmHg 35%
    17:00 +30°C° 0,1 mm 2 mps 654 mmHg 41%
    18:00 +28°C° 0,1 mm 2 mps 654 mmHg 47%
    19:00 +27°C° 0,1 mm 3 mps 654 mmHg 54%
    20:00 +26°C° 0,7 mm 2 mps 655 mmHg 59%
    21:00 +25°C° 0,7 mm 2 mps 655 mmHg 64%
    22:00 +24°C° 0,7 mm 2 mps 655 mmHg 69%
    23:00 +23°C° 2,3 mm 2 mps 654 mmHg 73%

    25 Octubre, Miércoles

    Tiempo Temperatura Precipitaciones Viento Presión Humedad
    00:00 +23°C° 2,3 mm 2 mps 654 mmHg 77%
    01:00 +21°C° 2,3 mm 2 mps 654 mmHg 80%
    02:00 +21°C° 1,2 mm 2 mps 654 mmHg 80%
    03:00 +21°C° 1,2 mm 2 mps 653 mmHg 79%
    04:00 +21°C° 1,2 mm 2 mps 653 mmHg 78%
    05:00 +21°C° 0,3 mm 2 mps 654 mmHg 77%
    06:00 +23°C° 0,3 mm 2 mps 654 mmHg 76%
    07:00 +23°C° 0,3 mm 2 mps 654 mmHg 75%
    08:00 +24°C° 0,1 mm 2 mps 655 mmHg 69%
    09:00 +26°C° 0,1 mm 3 mps 655 mmHg 63%
    10:00 +27°C° 0,1 mm 3 mps 655 mmHg 57%
    11:00 +28°C° 0,4 mm 3 mps 655 mmHg 53%
    12:00 +29°C° 0,4 mm 3 mps 655 mmHg 49%
    13:00 +30°C° 0,4 mm 3 mps 655 mmHg 46%
    14:00 +29°C° 1,1 mm 3 mps 654 mmHg 51%
    15:00 +27°C° 1,1 mm 3 mps 654 mmHg 56%
    16:00 +26°C° 1,1 mm 3 mps 653 mmHg 62%
    17:00 +25°C° 1 mm 3 mps 653 mmHg 65%
    18:00 +24°C° 1 mm 3 mps 653 mmHg 69%
    19:00 +23°C° 1 mm 2 mps 653 mmHg 73%
    20:00 +23°C° 0,3 mm 2 mps 654 mmHg 73%
    21:00 +23°C° 0,3 mm 1 mps 654 mmHg 74%
    22:00 +23°C° 0,3 mm 1 mps 654 mmHg 75%
    23:00 +22°C° 0,1 mm 1 mps 653 mmHg 76%
    Mostrar más